Theta_e
340 349 354 355 353 352 351 351 351 352 351 349 350 351 351 350 348 347 346 345 343 343 342 342 342 343 344 347 347 346 345 345 345 346 347 348 348 347 347 347 348 346 350
340 350 352 355 354 354 352 352 352 353 352 352 352 352 351 350 349 347 345 344 342 341 340 340 340 340 341 344 345 344 344 344 343 344 346 345 345 344 345 344 346 346 349
340 349 352 353 354 354 353 352 353 353 352 352 352 352 350 349 347 345 343 342 341 340 339 336 335 336 337 339 341 340 340 341 342 342 344 340 340 342 342 341 342 344 346
339 348 350 349 352 354 353 352 353 354 354 353 352 351 350 348 346 344 342 341 340 340 338 336 333 330 331 334 337 339 341 340 339 342 338 338 336 340 341 340 340 340 343
340 348 349 348 352 353 353 352 353 352 352 350 349 350 349 347 345 343 342 340 339 338 336 334 331 327 327 332 334 340 341 339 339 338 337 338 336 338 341 338 338 339 340
340 346 347 349 351 352 351 352 351 351 350 349 348 348 348 347 344 342 340 339 337 335 334 332 328 326 326 328 333 338 339 340 340 337 334 339 338 339 338 338 337 337 338
340 346 350 347 350 349 349 350 351 351 350 348 348 348 347 346 344 341 339 337 335 334 332 331 327 324 324 327 331 334 335 335 337 336 337 338 339 340 339 337 336 335 335
340 344 347 342 343 347 348 347 347 348 347 347 347 347 346 345 343 340 337 337 334 333 332 330 326 322 321 324 326 328 327 328 333 334 333 333 336 338 337 335 334 333 333
341 342 343 346 345 336 339 342 344 345 345 346 345 344 343 343 341 339 339 337 334 332 331 328 326 323 318 319 319 318 320 324 329 331 330 330 330 335 334 331 331 331 330
327 335 337 341 343 347 348 337 339 341 341 343 342 341 337 337 335 334 333 335 334 332 330 327 325 321 312 313 313 312 315 320 320 322 324 321 326 330 330 327 327 328 328
316 317 320 326 334 340 343 340 336 336 336 337 337 332 332 341 337 334 330 333 334 332 329 328 324 319 309 309 310 311 313 310 312 314 315 316 321 325 326 324 324 325 326
311 313 314 316 321 329 339 342 346 345 345 344 344 343 343 341 339 333 327 329 331 329 330 327 323 318 321 314 310 313 307 308 308 309 308 311 315 318 320 324 324 324 325
311 313 314 315 316 323 337 341 344 345 344 344 342 343 342 342 337 335 331 331 329 323 328 327 325 325 323 319 314 311 309 309 308 308 306 307 311 314 317 318 324 323 323
311 313 316 317 317 317 333 338 340 341 342 341 341 341 341 341 339 336 332 331 331 328 326 325 324 325 323 319 316 314 312 310 308 308 306 306 307 311 314 316 319 324 324
310 313 315 317 320 318 331 338 338 333 333 332 332 332 333 335 336 336 331 329 329 327 324 323 322 322 322 320 318 317 315 313 310 309 309 306 304 308 311 313 316 319 323
311 311 313 317 320 319 332 326 324 325 324 323 323 327 329 329 328 327 327 326 323 322 320 320 317 315 314 315 318 317 315 314 312 311 310 311 305 303 306 310 313 316 320
309 307 310 317 322 320 317 316 317 318 317 315 316 319 322 323 320 321 318 317 316 318 316 316 312 312 312 311 312 313 315 315 314 313 313 312 311 308 302 306 309 312 315
304 305 311 314 313 311 311 311 313 313 311 310 314 317 317 317 318 315 314 313 314 313 313 310 310 309 309 308 308 310 310 314 315 314 313 311 310 308 310 304 305 307 308
302 304 308 309 307 306 305 305 305 307 308 310 311 312 313 313 314 313 311 309 308 308 308 308 307 310 306 307 305 306 308 310 314 311 306 305 305 305 305 307 304 305 305
302 304 304 306 305 304 303 301 301 302 303 305 307 307 308 309 310 309 308 307 306 305 306 307 306 305 305 306 305 306 310 312 311 308 305 304 304 305 305 305 306 305 306
302 303 304 305 305 305 305 304 304 302 301 299 300 301 302 303 305 306 305 306 306 304 304 304 306 306 305 304 307 306 309 307 306 306 306 305 305 305 304 304 304 305 305
300 301 303 304 308 308 307 305 302 299 297 296 296 296 296 297 297 298 299 299 300 299 298 300 302 303 303 303 298 302 302 303 303 305 305 302 303 303 303 303 303 303 304
299 300 301 303 303 304 302 300 298 297 296 294 293 293 294 294 295 294 295 295 295 294 293 293 294 294 295 298 298 298 295 294 296 303 302 302 301 296 297 297 299 297 301
296 298 299 299 300 301 302 301 300 296 292 291 291 292 292 293 292 293 293 293 293 293 292 292 292 292 292 290 294 293 296 295 290 289 295 294 294 292 293 296 292 296 298
295 295 296 296 296 296 297 297 295 293 292 292 291 291 291 292 292 291 291 291 291 291 291 291 291 291 291 289 289 289 290 290 293 286 284 286 290 291 293 291 291 295 295
293 293 293 293 292 294 295 294 293 292 291 291 290 290 290 290 290 290 289 289 289 289 289 289 290 289 289 289 288 288 287 285 285 284 283 284 285 287 289 290 292 292 294
Wind_Speed
5 15 9 13 12 12 10 10 10 10 11 12 12 12 13 15 13 13 14 13 14 14 14 14 13 12 11 13 14 15 14 14 13 12 13 16 16 15 17 18 18 13 13
10 15 9 12 13 12 11 10 9 9 10 11 11 12 12 13 13 14 13 13 13 13 13 13 13 12 11 11 12 11 11 11 10 6 5 16 15 14 14 15 14 14 16
9 14 14 12 13 13 11 9 9 9 9 9 9 11 11 13 13 13 13 13 13 13 13 13 13 12 11 10 9 9 8 8 6 6 9 11 11 12 13 14 14 14 15
7 11 12 12 14 15 12 9 8 8 8 8 11 11 11 12 12 12 13 12 13 13 13 13 13 12 11 10 9 8 7 5 4 7 2 9 8 12 13 13 14 15 12
8 9 11 10 12 14 12 10 7 7 6 7 9 10 12 13 12 12 12 12 12 12 13 13 13 13 11 10 9 9 7 4 4 7 8 7 6 10 13 13 13 13 13
6 8 11 5 9 13 11 10 8 7 7 7 7 9 10 13 13 11 11 11 12 12 12 13 13 14 13 11 10 9 7 6 7 5 4 10 10 9 10 11 11 12 11
6 6 9 4 3 9 10 11 10 8 7 7 8 9 11 14 14 10 9 9 11 12 12 13 14 14 14 13 13 12 12 12 7 9 8 11 10 9 10 10 10 11 11
6 4 6 6 3 2 7 10 9 9 8 7 7 8 9 10 13 11 8 9 11 12 12 13 13 14 14 14 13 13 13 12 3 6 5 6 13 10 10 10 10 10 10
5 4 3 7 8 5 4 5 10 10 9 9 9 8 8 9 12 11 10 11 12 12 11 12 13 13 13 13 13 12 11 11 7 5 4 8 14 11 11 11 11 10 10
7 7 6 6 2 7 8 6 3 6 8 7 7 7 9 9 9 11 12 11 12 11 10 10 11 11 10 11 11 11 9 9 7 5 5 8 12 11 10 11 11 10 9
5 5 4 3 4 4 7 3 4 4 5 6 7 7 9 7 8 8 10 11 11 10 9 10 9 8 3 7 8 6 7 5 5 5 5 11 12 11 10 9 10 9 8
5 4 4 4 3 3 3 5 6 6 5 5 5 7 7 7 5 7 7 9 8 8 7 9 7 3 2 5 4 2 4 4 3 3 5 10 11 11 10 10 8 8 8
5 5 6 5 4 4 3 3 3 1 1 2 3 4 4 3 7 5 4 4 4 4 3 2 2 4 6 5 5 5 5 4 3 3 6 8 9 9 10 10 10 8 7
7 6 6 6 4 4 3 2 1 1 3 3 6 6 3 1 4 5 3 3 2 2 3 3 3 4 5 5 5 5 6 5 4 3 4 6 7 8 8 9 8 9 7
7 8 8 7 4 4 7 3 4 7 7 8 8 9 6 7 5 3 3 3 3 3 3 3 2 4 4 3 4 4 5 5 5 3 3 3 5 9 9 9 8 8 9
7 9 10 8 3 7 7 10 7 7 8 8 8 7 8 5 5 5 5 5 4 3 3 4 4 3 3 4 4 2 2 1 2 4 4 3 1 3 8 10 10 10 10
8 8 9 8 12 11 11 9 7 7 8 7 7 10 10 9 8 8 6 5 5 4 5 4 4 3 2 2 3 4 4 2 2 1 2 3 3 3 1 6 9 10 10
8 8 8 7 10 11 10 8 9 9 9 8 8 8 11 11 9 8 6 6 5 5 4 4 3 2 1 3 3 3 4 6 3 3 3 3 3 4 3 4 8 10 11
6 5 7 8 10 10 10 10 11 11 9 8 8 8 11 12 11 9 8 6 6 6 5 3 3 3 2 4 5 3 4 4 4 4 5 5 5 4 4 6 4 7 7
5 6 6 7 10 10 8 9 8 8 9 8 9 9 11 10 10 9 8 7 6 5 5 3 2 4 3 6 6 5 4 2 3 3 3 4 5 6 6 6 5 5 6
6 7 6 7 6 5 5 6 7 9 9 10 9 12 12 11 11 10 8 8 8 9 9 8 5 6 6 9 5 6 3 5 3 3 4 5 6 6 6 6 5 4 5
7 6 6 5 5 5 6 7 7 8 9 10 9 11 13 12 12 11 10 9 10 8 10 10 9 6 6 8 6 5 4 2 7 4 4 4 8 8 9 10 9 9 8
7 7 8 8 8 8 9 8 9 9 8 9 9 9 10 11 12 12 11 9 9 8 8 10 10 12 7 7 11 6 5 4 8 3 5 6 6 7 8 9 9 11 9
7 6 8 9 9 7 9 9 9 8 9 9 9 8 8 10 12 12 11 10 10 8 9 8 8 8 8 7 4 7 5 5 5 6 5 8 9 10 9 6 10 9 9
7 7 8 9 10 9 10 11 9 11 8 8 8 10 10 9 11 11 11 10 9 7 8 9 8 9 7 5 5 5 5 6 2 5 8 9 7 7 6 8 9 6 10
8 8 9 10 10 10 11 12 13 13 11 8 8 7 6 7 7 9 9 8 9 7 7 6 7 8 7 6 5 5 5 4 6 5 8 9 11 7 9 8 6 6 8
Wind_Direction
166 133 148 145 143 136 132 124 121 119 120 120 121 120 112 107 96 87 81 76 72 69 65 65 58 56 49 45 62 54 52 50 49 59 72 62 51 49 45 36 31 52 47
144 141 150 149 149 143 140 137 134 132 132 131 130 120 119 108 95 88 81 77 73 69 66 63 61 57 52 47 52 57 53 54 42 20 85 96 53 43 44 45 44 51 45
156 142 164 164 160 144 141 143 144 143 139 139 129 125 118 107 95 90 83 75 68 63 60 57 53 51 47 48 49 50 50 50 35 337 316 65 73 43 43 44 44 46 48
157 157 165 160 157 142 143 150 154 158 159 155 127 126 119 108 102 93 85 76 66 59 52 48 45 42 39 36 40 47 41 32 335 299 31 79 55 56 42 44 44 38 42
147 170 126 158 156 146 148 154 169 159 146 130 129 124 123 112 103 95 86 75 65 54 49 44 41 39 36 35 34 40 33 15 272 285 58 42 82 57 47 38 38 43 35
142 171 119 143 170 150 156 160 170 165 166 153 134 130 125 119 105 96 87 73 64 49 49 43 39 37 36 32 29 35 31 350 300 72 76 81 58 41 40 38 36 34 33
135 164 143 169 199 160 166 174 177 177 164 146 139 127 131 120 120 106 96 82 69 61 52 45 40 39 36 34 32 27 14 348 349 41 29 44 49 46 35 32 29 30 27
113 135 154 165 284 283 197 190 188 181 171 160 150 151 139 130 117 107 90 90 74 65 60 48 45 41 38 37 34 29 15 353 320 44 26 50 15 23 28 21 22 24 24
88 126 167 183 197 245 262 224 189 187 181 173 169 172 154 132 116 107 95 97 82 72 67 54 50 44 45 40 35 26 10 348 356 35 1 49 6 7 16 12 10 11 16
53 44 26 6 338 258 217 205 166 186 180 175 168 148 131 125 119 121 116 98 96 91 87 73 61 50 54 50 40 21 350 309 19 14 45 25 7 7 10 7 6 5 9
68 44 32 0 4 318 293 53 161 154 173 166 138 140 151 168 169 134 114 127 122 116 109 98 76 56 70 87 60 17 334 26 7 16 47 14 11 9 5 5 5 4 3
17 14 7 345 316 311 280 283 244 198 208 205 203 184 204 181 124 130 123 116 105 110 116 109 99 122 2 31 35 4 31 10 32 19 69 17 10 8 3 357 360 359 1
355 7 358 336 308 249 245 239 260 241 229 197 207 191 215 161 143 148 132 136 124 135 107 107 92 28 42 30 29 25 12 359 6 13 73 31 10 4 1 356 349 347 347
354 358 351 336 291 236 203 214 10 48 51 44 25 25 347 195 163 149 121 106 109 61 81 37 29 25 60 51 41 29 18 0 3 344 67 47 3 355 352 352 345 337 327
352 351 354 333 300 213 180 150 77 57 62 59 56 45 36 33 20 89 89 77 78 70 56 68 49 42 22 42 55 39 22 10 355 349 332 92 5 344 342 341 341 336 326
356 4 348 342 289 182 95 86 85 81 72 67 54 48 54 54 62 56 42 54 61 60 68 58 51 37 27 357 348 25 56 59 4 340 333 330 159 337 343 339 341 339 336
19 0 357 7 58 87 86 83 85 82 81 69 61 50 53 58 57 69 67 50 46 48 61 65 52 44 23 1 329 322 307 274 270 285 296 320 329 203 10 353 348 340 336
19 13 19 48 70 74 76 79 81 80 77 61 63 60 59 62 69 69 73 66 62 53 54 61 36 71 48 353 315 310 310 308 273 307 327 343 340 345 317 35 348 337 333
34 34 50 69 78 83 85 87 84 85 80 79 75 67 64 64 68 78 74 54 52 50 33 34 48 6 13 344 303 289 279 287 317 358 11 18 18 359 347 351 336 307 335
64 71 67 82 91 94 87 84 84 84 81 71 64 62 62 61 67 73 73 67 68 72 56 47 57 31 358 335 305 282 261 283 23 50 29 54 43 19 14 3 345 354 341
86 87 95 99 100 102 97 100 90 87 83 75 67 63 56 52 53 56 51 49 54 41 40 31 13 25 29 348 316 354 294 77 16 6 22 15 18 11 9 358 352 340 334
102 103 107 122 131 93 91 93 95 98 86 85 77 67 63 61 59 61 60 53 46 54 44 32 27 26 38 26 5 287 354 142 25 350 29 39 24 10 357 3 350 341 334
122 118 113 107 107 99 103 105 105 112 106 93 78 71 63 65 63 64 65 64 59 55 50 37 26 23 32 28 38 8 347 359 336 56 47 10 17 2 345 343 358 339 335
120 113 108 107 101 99 127 131 116 102 99 91 89 85 76 68 68 65 59 59 60 55 47 42 37 37 27 30 27 17 17 336 339 324 3 321 3 347 352 336 339 320 332
123 116 116 111 106 106 107 106 104 104 103 100 96 91 81 69 64 67 70 67 57 52 49 45 40 35 33 34 27 360 355 331 354 314 310 326 323 335 314 331 314 335 321
134 126 120 116 112 116 116 115 116 118 117 115 108 97 88 81 72 63 65 65 68 63 49 43 37 37 30 27 13 14 3 345 340 323 312 314 315 317 329 296 277 302 306